Retour au catalogue

INTELSAT 29E

ActifCommunicationsGEO
NORAD 41308·PAYLOAD· XX

Lancé Jan 27, 2016 depuis Guiana Space Centre

Loading…

TLE

FraisSource: Space-Track

Époque: Sep 14, 2026, 10:55 UTC

1 41308U 16004A   26257.45517796 -.00000362  00000-0  00000-0 0  9995
2 41308   6.7175  69.1946 0003728 125.9896  76.3995  1.00623911 39171

Suivez INTELSAT 29E en temps réel avec AllMySat

Download on the App Store